PIA754 OERK-OPIS

Flight info

Callsign PIA754
Flight time 3h 44m
Altitude 37000
Route RAPMA1E/15L RAPMA DCT KUVSO DCT ASPUS DCT KUTNA DCT BOPEK DCT KATIT DCT DAVLU DCT DANUX DCT MIDGU M440 TULBU G652 KUSRA Z465 VUSET R462 EGTAL B505 PG G325 HANGU J139 KALMI
Aircraft B77W/H-SDE1E2E3FGHIJ2J3J4J5M1RWXY/LB1D1

Departure

Time 2026-05-09 16:37
Airport King Khalid International Airport (OERK)

Arrival

Time 2026-05-09 20:21
Airport Islamabad International Airport (OPIS)
Time Latitude Longitude Altitude Speed Heading
2026-05-09 16:01 24.94282 46.71332 2046 ft 0 kts 239°
2026-05-09 16:22 24.94293 46.71352 2046 ft 4 kts 239°
2026-05-09 16:23 24.94306 46.71378 2044 ft 4 kts 239°
2026-05-09 16:23 24.94318 46.71400 2037 ft 4 kts 254°
2026-05-09 16:23 24.94316 46.71423 2040 ft 4 kts 320°
2026-05-09 16:23 24.94300 46.71435 2044 ft 0 kts 328°
2026-05-09 16:26 24.94301 46.71435 2044 ft 1 kts 328°
2026-05-09 16:27 24.94332 46.71412 2046 ft 10 kts 327°
2026-05-09 16:27 24.94416 46.71357 2045 ft 12 kts 330°
2026-05-09 16:27 24.94472 46.71321 2046 ft 12 kts 330°
2026-05-09 16:27 24.94539 46.71279 2042 ft 9 kts 332°
2026-05-09 16:28 24.94607 46.71283 2044 ft 11 kts 42°
2026-05-09 16:28 24.94654 46.71374 2038 ft 17 kts 59°
2026-05-09 16:28 24.94721 46.71502 2044 ft 11 kts 60°
2026-05-09 16:28 24.94760 46.71577 2046 ft 11 kts 60°
2026-05-09 16:29 24.94804 46.71648 2043 ft 11 kts 37°
2026-05-09 16:29 24.94881 46.71632 2046 ft 15 kts 330°
2026-05-09 16:29 24.94992 46.71561 2040 ft 16 kts 330°
2026-05-09 16:29 24.95092 46.71498 2045 ft 16 kts 330°
2026-05-09 16:30 24.95191 46.71435 2044 ft 16 kts 330°
2026-05-09 16:30 24.95289 46.71374 2045 ft 17 kts 331°
2026-05-09 16:30 24.95389 46.71311 2040 ft 17 kts 330°
2026-05-09 16:30 24.95489 46.71248 2041 ft 17 kts 330°
2026-05-09 16:31 24.95587 46.71186 2045 ft 15 kts 330°
2026-05-09 16:31 24.95682 46.71125 2043 ft 17 kts 330°
2026-05-09 16:31 24.95786 46.71060 2044 ft 18 kts 330°
2026-05-09 16:31 24.95897 46.70989 2043 ft 19 kts 330°
2026-05-09 16:32 24.96013 46.70916 2043 ft 19 kts 330°
2026-05-09 16:32 24.96123 46.70847 2044 ft 17 kts 330°
2026-05-09 16:32 24.96223 46.70784 2042 ft 17 kts 330°
2026-05-09 16:32 24.96323 46.70722 2042 ft 17 kts 330°
2026-05-09 16:33 24.96423 46.70657 2044 ft 17 kts 330°
2026-05-09 16:33 24.96525 46.70592 2040 ft 17 kts 330°
2026-05-09 16:33 24.96628 46.70527 2042 ft 17 kts 330°
2026-05-09 16:33 24.96731 46.70462 2043 ft 17 kts 330°
2026-05-09 16:34 24.96834 46.70397 2042 ft 17 kts 330°
2026-05-09 16:34 24.96936 46.70332 2041 ft 16 kts 330°
2026-05-09 16:34 24.97036 46.70269 2042 ft 16 kts 330°
2026-05-09 16:34 24.97135 46.70207 2042 ft 16 kts 330°
2026-05-09 16:35 24.97234 46.70145 2043 ft 17 kts 330°
2026-05-09 16:35 24.97338 46.70079 2038 ft 17 kts 330°
2026-05-09 16:35 24.97443 46.70012 2041 ft 17 kts 329°
2026-05-09 16:35 24.97543 46.69985 2033 ft 12 kts 25°
2026-05-09 16:36 24.97593 46.70063 2042 ft 13 kts 60°
2026-05-09 16:36 24.97499 46.70319 2040 ft 22 kts 150°
2026-05-09 16:37 24.97152 46.70540 2040 ft 93 kts 150°
2026-05-09 16:37 24.96416 46.71004 2043 ft 152 kts 150°
2026-05-09 16:37 24.95373 46.71684 2101 ft 189 kts 147°
2026-05-09 16:37 24.94249 46.72403 2650 ft 188 kts 148°
2026-05-09 16:38 24.93184 46.73245 3139 ft 188 kts 135°
2026-05-09 16:38 24.92205 46.74209 3722 ft 190 kts 137°
2026-05-09 16:38 24.91151 46.75202 4015 ft 211 kts 138°
2026-05-09 16:38 24.89968 46.76302 4228 ft 234 kts 141°
2026-05-09 16:39 24.88475 46.77187 4511 ft 253 kts 157°
2026-05-09 16:39 24.86786 46.77850 5129 ft 262 kts 160°
2026-05-09 16:39 24.85025 46.78496 5748 ft 271 kts 161°
2026-05-09 16:39 24.83239 46.79154 6466 ft 276 kts 161°
2026-05-09 16:40 24.81416 46.79836 7237 ft 278 kts 162°
2026-05-09 16:40 24.79572 46.80538 7946 ft 284 kts 162°
2026-05-09 16:42 24.65031 46.86237 11229 ft 381 kts 161°
2026-05-09 16:42 24.62504 46.87237 11866 ft 391 kts 161°
2026-05-09 16:42 24.59923 46.88260 12702 ft 397 kts 160°
2026-05-09 16:42 24.57313 46.89294 13571 ft 402 kts 160°
2026-05-09 16:43 24.54661 46.90345 14291 ft 409 kts 160°
2026-05-09 16:43 24.51970 46.91410 15080 ft 413 kts 160°
2026-05-09 16:43 24.49254 46.92484 15871 ft 417 kts 160°
2026-05-09 16:43 24.47411 46.93213 16387 ft 420 kts 160°
2026-05-09 16:44 24.44980 46.94174 17043 ft 424 kts 160°
2026-05-09 16:44 24.42185 46.95277 17762 ft 430 kts 160°
2026-05-09 16:44 24.39353 46.96395 18448 ft 435 kts 160°
2026-05-09 16:44 24.36494 46.97523 19034 ft 439 kts 160°
2026-05-09 16:45 24.33607 46.98661 19657 ft 443 kts 160°
2026-05-09 16:45 24.30696 46.99808 20288 ft 446 kts 160°
2026-05-09 16:45 24.27760 47.00965 20921 ft 450 kts 160°
2026-05-09 16:45 24.24803 47.02130 21536 ft 454 kts 160°
2026-05-09 16:46 24.21815 47.03306 22144 ft 458 kts 160°
2026-05-09 16:46 24.18843 47.04475 22723 ft 462 kts 160°
2026-05-09 16:46 24.15800 47.05672 23304 ft 466 kts 161°
2026-05-09 16:46 24.12751 47.06916 23847 ft 470 kts 158°
2026-05-09 16:47 24.09785 47.08440 24342 ft 473 kts 152°
2026-05-09 16:47 24.06959 47.10302 24852 ft 475 kts 149°
2026-05-09 16:47 24.04159 47.12251 25300 ft 479 kts 149°
2026-05-09 16:47 24.01342 47.14222 25756 ft 482 kts 149°
2026-05-09 16:48 23.98502 47.16200 26218 ft 485 kts 150°
2026-05-09 16:48 23.95643 47.18177 26685 ft 488 kts 150°
2026-05-09 16:48 23.92762 47.20159 27157 ft 490 kts 151°
2026-05-09 16:48 23.89904 47.22117 27599 ft 493 kts 152°
2026-05-09 16:49 23.86990 47.24108 28031 ft 496 kts 152°
2026-05-09 16:49 23.84055 47.26111 28440 ft 499 kts 152°
2026-05-09 16:49 23.81107 47.28122 28834 ft 501 kts 152°
2026-05-09 16:50 23.75180 47.32166 29674 ft 503 kts 153°
2026-05-09 16:50 23.72210 47.34193 30044 ft 504 kts 153°
2026-05-09 16:50 23.69234 47.36222 30413 ft 504 kts 153°
2026-05-09 16:50 23.66269 47.38243 30846 ft 502 kts 153°
2026-05-09 16:51 23.63318 47.40255 31342 ft 498 kts 153°
2026-05-09 16:51 23.60389 47.42249 31847 ft 495 kts 153°
2026-05-09 16:51 23.57516 47.44203 32309 ft 493 kts 153°
2026-05-09 16:51 23.54607 47.46179 32697 ft 492 kts 153°
2026-05-09 16:52 23.51703 47.48152 33051 ft 491 kts 153°
2026-05-09 16:52 23.49000 47.50478 33223 ft 505 kts 138°
2026-05-09 16:52 23.46948 47.53641 33482 ft 519 kts 121°
2026-05-09 16:52 23.45697 47.57348 33845 ft 529 kts 105°
2026-05-09 16:53 23.45246 47.61328 34084 ft 532 kts 99°
2026-05-09 16:53 23.44925 47.65363 34207 ft 536 kts 98°
2026-05-09 16:53 23.44616 47.69355 34459 ft 537 kts 99°
2026-05-09 16:53 23.44282 47.73392 34808 ft 535 kts 99°
2026-05-09 16:54 23.43921 47.77416 35170 ft 533 kts 100°
2026-05-09 16:54 23.43539 47.81417 35507 ft 531 kts 100°
2026-05-09 16:54 23.43141 47.85412 35821 ft 530 kts 101°
2026-05-09 16:54 23.42737 47.89400 36100 ft 530 kts 101°
2026-05-09 16:55 23.42333 47.93385 36379 ft 530 kts 101°
2026-05-09 16:55 23.41929 47.97372 36670 ft 529 kts 101°
2026-05-09 16:55 23.41540 48.01221 36885 ft 531 kts 101°
2026-05-09 16:56 23.40734 48.09199 36946 ft 535 kts 101°
2026-05-09 16:56 23.39924 48.17221 36931 ft 530 kts 101°
2026-05-09 16:57 23.39116 48.25163 36917 ft 527 kts 101°
2026-05-09 16:57 23.38307 48.33074 36935 ft 526 kts 100°
2026-05-09 16:58 23.37848 48.40983 36942 ft 528 kts 96°
2026-05-09 16:58 23.37573 48.48982 36939 ft 530 kts 96°
2026-05-09 16:59 23.37286 48.57000 36940 ft 531 kts 96°
2026-05-09 16:59 23.36963 48.65032 36934 ft 532 kts 96°
2026-05-09 17:00 23.36627 48.73081 36933 ft 533 kts 96°
2026-05-09 17:00 23.36289 48.81089 36934 ft 533 kts 96°
2026-05-09 17:01 23.35948 48.89151 36921 ft 533 kts 96°
2026-05-09 17:01 23.35603 48.97205 36929 ft 533 kts 96°
2026-05-09 17:02 23.35261 49.05117 36931 ft 532 kts 96°
2026-05-09 17:02 23.34909 49.13097 36931 ft 530 kts 96°
2026-05-09 17:03 23.34551 49.21091 36925 ft 528 kts 96°
2026-05-09 17:05 23.33091 49.52838 36918 ft 525 kts 96°
2026-05-09 17:05 23.32716 49.60768 36918 ft 525 kts 96°
2026-05-09 17:06 23.32337 49.68696 36941 ft 525 kts 96°
2026-05-09 17:06 23.31954 49.76630 36938 ft 525 kts 96°
2026-05-09 17:07 23.31570 49.84522 36930 ft 526 kts 96°
2026-05-09 17:07 23.31178 49.92470 36939 ft 527 kts 96°
2026-05-09 17:08 23.30787 50.00323 36923 ft 527 kts 96°
2026-05-09 17:08 23.30185 50.12275 36924 ft 528 kts 96°
2026-05-09 17:09 23.29781 50.20198 36937 ft 528 kts 96°
2026-05-09 17:09 23.29370 50.28174 36922 ft 528 kts 96°
2026-05-09 17:10 23.28955 50.36149 36930 ft 528 kts 96°
2026-05-09 17:10 23.28536 50.44117 36927 ft 527 kts 96°
2026-05-09 17:11 23.28114 50.52076 36927 ft 527 kts 96°
2026-05-09 17:11 23.27688 50.60034 36928 ft 527 kts 96°
2026-05-09 17:12 23.27261 50.67926 36922 ft 526 kts 96°
2026-05-09 17:12 23.26828 50.75863 36926 ft 525 kts 96°
2026-05-09 17:13 23.26392 50.83787 36922 ft 525 kts 96°
2026-05-09 17:13 23.25955 50.91650 36919 ft 524 kts 96°
2026-05-09 17:14 23.25512 50.99552 36913 ft 523 kts 96°
2026-05-09 17:14 23.25072 51.07325 36921 ft 523 kts 96°
2026-05-09 17:15 23.24623 51.15207 36925 ft 522 kts 96°
2026-05-09 17:15 23.24161 51.23090 36923 ft 522 kts 96°
2026-05-09 17:17 23.19781 51.53890 36923 ft 512 kts 117°
2026-05-09 17:18 23.16958 51.60987 36919 ft 511 kts 117°
2026-05-09 17:18 23.14140 51.68084 36922 ft 512 kts 117°
2026-05-09 17:19 23.11377 51.75154 36919 ft 512 kts 116°
2026-05-09 17:19 23.08604 51.82281 36918 ft 512 kts 116°
2026-05-09 17:20 23.05825 51.89400 36916 ft 512 kts 117°
2026-05-09 17:20 23.03045 51.96509 36916 ft 511 kts 117°
2026-05-09 17:21 23.00300 52.03515 36915 ft 511 kts 117°
2026-05-09 17:21 22.97541 52.10551 36916 ft 510 kts 117°
2026-05-09 17:22 22.94760 52.17635 36915 ft 510 kts 117°
2026-05-09 17:22 22.91979 52.24710 36909 ft 510 kts 117°
2026-05-09 17:23 22.89197 52.31777 36912 ft 509 kts 117°
2026-05-09 17:23 22.86415 52.38835 36906 ft 509 kts 116°
2026-05-09 17:25 22.81298 52.57116 36907 ft 514 kts 100°
2026-05-09 17:25 22.80859 52.60964 36904 ft 515 kts 99°
2026-05-09 17:25 22.80000 52.68665 36900 ft 515 kts 99°
2026-05-09 17:26 22.79099 52.76359 36900 ft 515 kts 100°
2026-05-09 17:26 22.78170 52.83995 36896 ft 514 kts 100°
2026-05-09 17:27 22.77226 52.91674 36893 ft 514 kts 100°
2026-05-09 17:27 22.76283 52.99339 36897 ft 513 kts 100°
2026-05-09 17:28 22.75353 53.06889 36891 ft 512 kts 100°
2026-05-09 17:28 22.74407 53.14536 36889 ft 512 kts 100°
2026-05-09 17:29 22.73464 53.22121 36885 ft 511 kts 100°
2026-05-09 17:29 22.72513 53.29746 36886 ft 511 kts 100°
2026-05-09 17:30 22.71559 53.37368 36884 ft 511 kts 100°
2026-05-09 17:30 22.70600 53.44995 36883 ft 511 kts 100°
2026-05-09 17:31 22.69639 53.52616 36884 ft 511 kts 100°
2026-05-09 17:32 22.67223 53.71603 36883 ft 510 kts 100°
2026-05-09 17:33 22.66249 53.79209 36874 ft 510 kts 100°
2026-05-09 17:33 22.65273 53.86809 36876 ft 510 kts 100°
2026-05-09 17:34 22.64292 53.94407 36878 ft 510 kts 100°
2026-05-09 17:35 22.60860 54.20799 36876 ft 509 kts 100°
2026-05-09 17:36 22.59865 54.28387 36862 ft 509 kts 100°
2026-05-09 17:36 22.58870 54.35964 36871 ft 508 kts 100°
2026-05-09 17:37 22.57873 54.43538 36872 ft 508 kts 100°
2026-05-09 17:37 22.56879 54.51057 36865 ft 508 kts 100°
2026-05-09 17:38 22.55876 54.58621 36868 ft 508 kts 100°
2026-05-09 17:39 22.54368 54.69953 36866 ft 507 kts 100°
2026-05-09 17:39 22.53357 54.77505 36867 ft 507 kts 100°
2026-05-09 17:40 22.52342 54.85057 36870 ft 507 kts 100°
2026-05-09 17:40 22.51331 54.92559 36865 ft 507 kts 100°
2026-05-09 17:41 22.50313 55.00083 36873 ft 507 kts 100°
2026-05-09 17:41 22.49298 55.07560 36859 ft 507 kts 100°
2026-05-09 17:42 22.48272 55.15101 36865 ft 507 kts 100°
2026-05-09 17:42 22.47242 55.22633 36872 ft 506 kts 100°
2026-05-09 17:43 22.46216 55.30116 36871 ft 506 kts 100°
2026-05-09 17:43 22.46051 55.37704 36873 ft 508 kts 83°
2026-05-09 17:44 22.47845 55.45074 36874 ft 508 kts 68°
2026-05-09 17:44 22.50571 55.52136 36854 ft 510 kts 67°
2026-05-09 17:45 22.53305 55.59165 36857 ft 511 kts 68°
2026-05-09 17:45 22.56000 55.66283 36852 ft 512 kts 68°
2026-05-09 17:46 22.58665 55.73427 36856 ft 513 kts 68°
2026-05-09 17:46 22.61328 55.80587 36857 ft 513 kts 68°
2026-05-09 17:47 22.63975 55.87701 36855 ft 513 kts 68°
2026-05-09 17:47 22.66641 55.94874 36867 ft 513 kts 68°
2026-05-09 17:48 22.69267 56.01950 36864 ft 513 kts 68°
2026-05-09 17:48 22.71926 56.09125 36871 ft 513 kts 68°
2026-05-09 17:49 22.74579 56.16297 36880 ft 513 kts 68°
2026-05-09 17:49 22.77209 56.23420 36874 ft 513 kts 68°
2026-05-09 17:50 22.79853 56.30591 36868 ft 512 kts 68°
2026-05-09 17:50 22.83158 56.40233 36879 ft 512 kts 76°
2026-05-09 17:51 22.84882 56.49047 36890 ft 512 kts 80°
2026-05-09 17:51 22.86241 56.56584 36882 ft 513 kts 79°
2026-05-09 17:52 22.87650 56.64173 36894 ft 514 kts 79°
2026-05-09 17:52 22.89086 56.71776 36900 ft 515 kts 79°
2026-05-09 17:53 22.90525 56.79394 36908 ft 516 kts 79°
2026-05-09 17:53 22.91949 56.86974 36914 ft 517 kts 79°
2026-05-09 17:54 22.93379 56.94609 36923 ft 517 kts 79°
2026-05-09 17:54 22.94786 57.02147 36932 ft 517 kts 79°
2026-05-09 17:55 22.96211 57.09799 36939 ft 517 kts 79°
2026-05-09 17:55 22.97622 57.17399 36954 ft 517 kts 79°
2026-05-09 17:56 22.99039 57.25049 36948 ft 517 kts 79°
2026-05-09 17:57 23.01894 57.36311 36969 ft 517 kts 70°
2026-05-09 17:57 23.04497 57.43584 36952 ft 517 kts 69°
2026-05-09 17:58 23.07071 57.50808 36957 ft 517 kts 69°
2026-05-09 17:58 23.09622 57.58107 36963 ft 517 kts 70°
2026-05-09 17:59 23.12151 57.65413 36942 ft 516 kts 70°
2026-05-09 17:59 23.14674 57.72713 36917 ft 516 kts 70°
2026-05-09 18:00 23.17177 57.79950 36927 ft 515 kts 70°
2026-05-09 18:00 23.19691 57.87236 36904 ft 514 kts 70°
2026-05-09 18:01 23.22201 57.94524 36895 ft 515 kts 70°
2026-05-09 18:01 23.24679 58.01724 36909 ft 516 kts 70°
2026-05-09 18:02 23.27358 58.08914 36873 ft 517 kts 67°
2026-05-09 18:02 23.30182 58.16105 36854 ft 517 kts 67°
2026-05-09 18:03 23.32973 58.23324 36856 ft 518 kts 68°
2026-05-09 18:03 23.35735 58.30566 36841 ft 519 kts 68°
2026-05-09 18:04 23.38499 58.37819 36830 ft 519 kts 68°
2026-05-09 18:04 23.41775 58.44736 36852 ft 518 kts 57°
2026-05-09 18:05 23.46076 58.50999 36835 ft 516 kts 49°
2026-05-09 18:05 23.50670 58.57012 36813 ft 516 kts 49°
2026-05-09 18:06 23.55229 58.63050 36809 ft 516 kts 50°
2026-05-09 18:06 23.59726 58.69089 36798 ft 517 kts 50°
2026-05-09 18:07 23.64249 58.75180 36799 ft 516 kts 50°
2026-05-09 18:07 23.68772 58.81266 36798 ft 516 kts 50°
2026-05-09 18:08 23.73267 58.87317 36804 ft 517 kts 50°
2026-05-09 18:08 23.77792 58.93414 36797 ft 517 kts 50°
2026-05-09 18:09 23.82314 58.99516 36803 ft 517 kts 50°
2026-05-09 18:09 23.86768 59.05535 36803 ft 517 kts 50°
2026-05-09 18:10 23.91263 59.11672 36805 ft 517 kts 53°
2026-05-09 18:10 23.95003 59.18324 36805 ft 518 kts 64°
2026-05-09 18:11 23.98077 59.25445 36812 ft 518 kts 64°
2026-05-09 18:11 24.01192 59.32535 36806 ft 518 kts 64°
2026-05-09 18:12 24.04367 59.39619 36808 ft 518 kts 64°
2026-05-09 18:12 24.07511 59.46655 36806 ft 518 kts 64°
2026-05-09 18:13 24.10671 59.53750 36807 ft 518 kts 64°
2026-05-09 18:13 24.13819 59.60847 36805 ft 518 kts 64°
2026-05-09 18:14 24.16963 59.67947 36810 ft 518 kts 64°
2026-05-09 18:14 24.20081 59.74999 36810 ft 518 kts 64°
2026-05-09 18:15 24.23219 59.82105 36809 ft 518 kts 64°
2026-05-09 18:15 24.26352 59.89211 36808 ft 518 kts 64°
2026-05-09 18:16 24.29480 59.96317 36811 ft 518 kts 64°
2026-05-09 18:16 24.32542 60.03285 36815 ft 517 kts 64°
2026-05-09 18:17 24.35662 60.10394 36809 ft 517 kts 64°
2026-05-09 18:17 24.38780 60.17505 36808 ft 517 kts 64°
2026-05-09 18:18 24.41894 60.24619 36808 ft 517 kts 64°
2026-05-09 18:18 24.44981 60.31685 36810 ft 517 kts 64°
2026-05-09 18:19 24.48085 60.38800 36809 ft 517 kts 64°
2026-05-09 18:19 24.52731 60.49472 36811 ft 516 kts 64°
2026-05-09 18:20 24.55795 60.56541 36814 ft 516 kts 65°
2026-05-09 18:20 24.57899 60.64059 36820 ft 516 kts 80°
2026-05-09 18:21 24.58458 60.71892 36817 ft 515 kts 91°
2026-05-09 18:21 24.58373 60.79760 36817 ft 515 kts 91°
2026-05-09 18:22 24.58300 60.87581 36817 ft 515 kts 91°
2026-05-09 18:22 24.58281 60.95456 36816 ft 516 kts 90°
2026-05-09 18:23 24.58277 61.03237 36812 ft 516 kts 90°
2026-05-09 18:23 24.58268 61.09793 36822 ft 516 kts 90°
2026-05-09 18:24 24.58250 61.17679 36815 ft 516 kts 90°
2026-05-09 18:25 24.58468 61.30779 36812 ft 516 kts 82°
2026-05-09 18:25 24.59989 61.38475 36824 ft 516 kts 71°
2026-05-09 18:26 24.62100 61.44592 36827 ft 515 kts 67°
2026-05-09 18:26 24.64793 61.51890 36823 ft 515 kts 67°
2026-05-09 18:27 24.67892 61.60397 36827 ft 516 kts 68°
2026-05-09 18:27 24.70075 61.66499 36822 ft 516 kts 68°
2026-05-09 18:28 24.72687 61.73854 36828 ft 516 kts 68°
2026-05-09 18:28 24.75719 61.82404 36829 ft 516 kts 68°
2026-05-09 18:29 24.77887 61.88523 36822 ft 516 kts 68°
2026-05-09 18:29 24.80930 61.97125 36828 ft 516 kts 68°
2026-05-09 18:30 24.83057 62.03145 36828 ft 516 kts 68°
2026-05-09 18:30 24.86073 62.11701 36831 ft 516 kts 68°
2026-05-09 18:31 24.88245 62.17873 36833 ft 516 kts 68°
2026-05-09 18:31 24.90815 62.25189 36828 ft 516 kts 68°
2026-05-09 18:32 24.93399 62.32556 36830 ft 515 kts 68°
2026-05-09 18:32 24.95976 62.39918 36829 ft 515 kts 68°
2026-05-09 18:33 24.98548 62.47281 36832 ft 515 kts 68°
2026-05-09 18:33 25.01094 62.54580 36839 ft 515 kts 68°
2026-05-09 18:34 25.03658 62.61944 36837 ft 515 kts 68°
2026-05-09 18:34 25.06219 62.69314 36833 ft 515 kts 68°
2026-05-09 18:35 25.08777 62.76688 36839 ft 515 kts 68°
2026-05-09 18:35 25.11314 62.84016 36842 ft 515 kts 68°
2026-05-09 18:36 25.13867 62.91404 36839 ft 516 kts 68°
2026-05-09 18:36 25.16418 62.98801 36843 ft 516 kts 68°
2026-05-09 18:37 25.18934 63.06108 36842 ft 516 kts 68°
2026-05-09 18:37 25.21464 63.13470 36843 ft 516 kts 68°
2026-05-09 18:38 25.24007 63.20886 36846 ft 516 kts 68°
2026-05-09 18:38 25.26545 63.28294 36845 ft 514 kts 68°
2026-05-09 18:40 25.45972 63.42976 36862 ft 501 kts 19°
2026-05-09 18:40 25.49194 63.44453 36863 ft 502 kts 20°
2026-05-09 18:41 25.55648 63.47467 36874 ft 504 kts 20°
2026-05-09 18:41 25.62111 63.50513 36866 ft 505 kts 20°
2026-05-09 18:42 25.68535 63.53541 36867 ft 505 kts 20°
2026-05-09 18:42 25.74992 63.56584 36859 ft 504 kts 20°
2026-05-09 18:43 25.81432 63.59621 36875 ft 502 kts 20°
2026-05-09 18:43 25.87810 63.62632 36881 ft 501 kts 20°
2026-05-09 18:44 25.94219 63.65662 36881 ft 500 kts 20°
2026-05-09 18:44 26.00603 63.68684 36884 ft 500 kts 20°
2026-05-09 18:45 26.07004 63.71703 36885 ft 500 kts 20°
2026-05-09 18:45 26.13360 63.74699 36904 ft 500 kts 20°
2026-05-09 18:46 26.19762 63.77722 36900 ft 500 kts 20°
2026-05-09 18:46 26.26173 63.80755 36900 ft 501 kts 20°
2026-05-09 18:47 26.32599 63.83799 36893 ft 502 kts 20°
2026-05-09 18:47 26.38987 63.86829 36895 ft 503 kts 20°
2026-05-09 18:48 26.45423 63.89886 36904 ft 503 kts 20°
2026-05-09 18:48 26.51863 63.92947 36900 ft 504 kts 20°
2026-05-09 18:49 26.58312 63.96017 36899 ft 504 kts 20°
2026-05-09 18:49 26.64760 63.99090 36909 ft 504 kts 20°
2026-05-09 18:50 26.71072 64.02104 36909 ft 503 kts 20°
2026-05-09 18:50 26.77514 64.05180 36916 ft 503 kts 20°
2026-05-09 18:51 26.83951 64.08260 36909 ft 503 kts 20°
2026-05-09 18:51 26.90382 64.11351 36916 ft 503 kts 21°
2026-05-09 18:52 26.96407 64.15405 36919 ft 508 kts 34°
2026-05-09 18:52 27.01621 64.20689 36922 ft 511 kts 43°
2026-05-09 18:53 27.06557 64.26446 36925 ft 512 kts 44°
2026-05-09 18:53 27.11495 64.32218 36905 ft 513 kts 43°
2026-05-09 18:54 27.16467 64.37962 36919 ft 513 kts 43°
2026-05-09 18:54 27.21426 64.43660 36908 ft 514 kts 43°
2026-05-09 18:55 27.26420 64.49402 36907 ft 514 kts 43°
2026-05-09 18:55 27.31406 64.55148 36905 ft 513 kts 43°
2026-05-09 18:56 27.36389 64.60902 36918 ft 513 kts 43°
2026-05-09 18:56 27.41374 64.66665 36886 ft 514 kts 43°
2026-05-09 18:57 27.46353 64.72430 36887 ft 514 kts 43°
2026-05-09 18:57 27.51301 64.78166 36892 ft 514 kts 43°
2026-05-09 18:58 27.56281 64.83948 36867 ft 514 kts 43°
2026-05-09 18:58 27.61259 64.89736 36873 ft 514 kts 43°
2026-05-09 18:59 27.66232 64.95525 36869 ft 514 kts 43°
2026-05-09 18:59 27.71104 65.01204 36853 ft 514 kts 43°
2026-05-09 19:00 27.76075 65.07008 36854 ft 514 kts 43°
2026-05-09 19:00 27.83533 65.15730 36839 ft 514 kts 43°
2026-05-09 19:01 27.88467 65.21510 36840 ft 514 kts 43°
2026-05-09 19:01 27.93434 65.27338 36852 ft 515 kts 43°
2026-05-09 19:02 27.98402 65.33175 36830 ft 515 kts 43°
2026-05-09 19:02 28.03362 65.39011 36849 ft 515 kts 43°
2026-05-09 19:03 28.08297 65.44825 36851 ft 515 kts 43°
2026-05-09 19:03 28.13270 65.50684 36864 ft 516 kts 43°
2026-05-09 19:04 28.18250 65.56557 36860 ft 517 kts 43°
2026-05-09 19:04 28.23233 65.62445 36858 ft 517 kts 43°
2026-05-09 19:05 28.28206 65.68334 36877 ft 517 kts 43°
2026-05-09 19:05 28.33181 65.74232 36904 ft 517 kts 43°
2026-05-09 19:06 28.38123 65.80097 36895 ft 517 kts 43°
2026-05-09 19:06 28.43093 65.86006 36888 ft 517 kts 43°
2026-05-09 19:07 28.48055 65.91914 36919 ft 516 kts 43°
2026-05-09 19:07 28.53002 65.97812 36919 ft 514 kts 43°
2026-05-09 19:08 28.57827 66.03573 36955 ft 513 kts 42°
2026-05-09 19:08 28.62749 66.09457 36962 ft 513 kts 42°
2026-05-09 19:09 28.67663 66.15341 36974 ft 513 kts 42°
2026-05-09 19:09 28.72574 66.21229 36977 ft 513 kts 43°
2026-05-09 19:10 28.77455 66.27091 36996 ft 513 kts 43°
2026-05-09 19:10 28.82370 66.33003 36989 ft 514 kts 43°
2026-05-09 19:11 28.87293 66.38932 37001 ft 515 kts 43°
2026-05-09 19:11 28.92223 66.44879 36996 ft 516 kts 43°
2026-05-09 19:12 28.97122 66.50799 37005 ft 517 kts 43°
2026-05-09 19:12 29.02046 66.56756 36997 ft 517 kts 43°
2026-05-09 19:13 29.06981 66.62727 36998 ft 516 kts 43°
2026-05-09 19:13 29.11917 66.68689 36983 ft 516 kts 43°
2026-05-09 19:14 29.16807 66.74604 36989 ft 515 kts 43°
2026-05-09 19:14 29.21722 66.80563 36964 ft 515 kts 43°
2026-05-09 19:15 29.26628 66.86522 36970 ft 514 kts 43°
2026-05-09 19:15 29.31528 66.92481 36954 ft 513 kts 43°
2026-05-09 19:16 29.36414 66.98436 36935 ft 512 kts 43°
2026-05-09 19:16 29.41192 67.04264 36924 ft 512 kts 43°
2026-05-09 19:17 29.46068 67.10215 36928 ft 512 kts 43°
2026-05-09 19:17 29.50952 67.16192 36892 ft 514 kts 43°
2026-05-09 19:18 29.55849 67.22199 36885 ft 516 kts 43°
2026-05-09 19:18 29.60724 67.28177 36892 ft 516 kts 43°
2026-05-09 19:19 29.65629 67.34211 36843 ft 517 kts 43°
2026-05-09 19:19 29.70541 67.40257 36848 ft 517 kts 43°
2026-05-09 19:20 29.75447 67.46300 36825 ft 517 kts 43°
2026-05-09 19:20 29.80325 67.52295 36819 ft 516 kts 43°
2026-05-09 19:21 29.85228 67.58333 36815 ft 516 kts 43°
2026-05-09 19:21 29.90132 67.64369 36845 ft 516 kts 43°
2026-05-09 19:22 29.95029 67.70413 36831 ft 516 kts 43°
2026-05-09 19:22 29.99893 67.76431 36824 ft 516 kts 43°
2026-05-09 19:23 30.04780 67.82486 36882 ft 516 kts 43°
2026-05-09 19:23 30.09671 67.88551 36883 ft 516 kts 43°
2026-05-09 19:24 30.14607 67.94562 36891 ft 516 kts 42°
2026-05-09 19:24 30.19457 68.00439 36932 ft 517 kts 42°
2026-05-09 19:25 30.24411 68.06478 36920 ft 518 kts 42°
2026-05-09 19:25 30.29367 68.12543 36957 ft 519 kts 42°
2026-05-09 19:26 30.34307 68.18646 36948 ft 520 kts 43°
2026-05-09 19:26 30.39205 68.24717 36938 ft 519 kts 42°
2026-05-09 19:27 30.44128 68.30824 36941 ft 518 kts 42°
2026-05-09 19:27 30.49040 68.36923 36943 ft 517 kts 42°
2026-05-09 19:28 30.53943 68.43017 36935 ft 517 kts 42°
2026-05-09 19:28 30.58809 68.49075 36905 ft 516 kts 42°
2026-05-09 19:29 30.63701 68.55177 36917 ft 516 kts 42°
2026-05-09 19:29 30.68584 68.61276 36913 ft 515 kts 42°
2026-05-09 19:30 30.73459 68.67376 36914 ft 515 kts 42°
2026-05-09 19:30 30.78295 68.73436 36909 ft 514 kts 42°
2026-05-09 19:31 30.83159 68.79541 36914 ft 515 kts 42°
2026-05-09 19:31 30.88026 68.85659 36923 ft 515 kts 42°
2026-05-09 19:32 30.92893 68.91787 36910 ft 516 kts 42°
2026-05-09 19:32 30.97756 68.97923 36904 ft 514 kts 42°
2026-05-09 19:33 31.02503 69.03922 36912 ft 515 kts 42°
2026-05-09 19:33 31.07354 69.10056 36948 ft 515 kts 42°
2026-05-09 19:34 31.12209 69.16207 36927 ft 516 kts 42°
2026-05-09 19:34 31.17064 69.22374 36928 ft 516 kts 41°
2026-05-09 19:35 31.21885 69.28502 36934 ft 515 kts 41°
2026-05-09 19:35 31.26731 69.34675 36932 ft 515 kts 41°
2026-05-09 19:36 31.31571 69.40850 36934 ft 515 kts 42°
2026-05-09 19:36 31.36705 69.46498 36942 ft 506 kts 32°
2026-05-09 19:37 31.42503 69.51021 36944 ft 498 kts 24°
2026-05-09 19:37 31.48467 69.55147 36952 ft 498 kts 24°
2026-05-09 19:38 31.54437 69.59301 36941 ft 500 kts 24°
2026-05-09 19:38 31.60399 69.63507 36918 ft 500 kts 24°
2026-05-09 19:39 31.66323 69.67702 36912 ft 501 kts 24°
2026-05-09 19:39 31.72285 69.71936 36915 ft 501 kts 24°
2026-05-09 19:40 31.78254 69.76181 36916 ft 501 kts 24°
2026-05-09 19:40 31.84225 69.80433 36893 ft 502 kts 24°
2026-05-09 19:41 31.90162 69.84669 36884 ft 503 kts 24°
2026-05-09 19:41 31.96148 69.88945 36897 ft 504 kts 24°
2026-05-09 19:42 32.02152 69.93221 36856 ft 505 kts 24°
2026-05-09 19:42 32.08136 69.97528 36867 ft 503 kts 24°
2026-05-09 19:43 32.13983 70.01725 36866 ft 502 kts 24°
2026-05-09 19:43 32.19945 70.06008 36877 ft 503 kts 24°
2026-05-09 19:44 32.25926 70.10310 36813 ft 504 kts 24°
2026-05-09 19:44 32.31902 70.14624 36810 ft 502 kts 24°
2026-05-09 19:45 32.38230 70.19176 36846 ft 502 kts 23°
2026-05-09 19:45 32.44247 70.23370 36835 ft 501 kts 23°
2026-05-09 19:46 32.50268 70.27538 36851 ft 501 kts 23°
2026-05-09 19:46 32.56275 70.31727 36845 ft 500 kts 23°
2026-05-09 19:47 32.62217 70.35893 36812 ft 499 kts 23°
2026-05-09 19:47 32.68156 70.40189 36826 ft 501 kts 25°
2026-05-09 19:48 32.74016 70.44701 36825 ft 503 kts 26°
2026-05-09 19:48 32.79893 70.49220 36815 ft 504 kts 25°
2026-05-09 19:49 32.85801 70.53724 36812 ft 505 kts 25°
2026-05-09 19:49 32.91669 70.58199 36821 ft 504 kts 25°
2026-05-09 19:50 32.97579 70.62659 36819 ft 502 kts 24°
2026-05-09 19:50 33.02499 70.66284 36826 ft 500 kts 24°
2026-05-09 19:51 33.09415 70.71378 36826 ft 499 kts 24°
2026-05-09 19:51 33.15268 70.75717 36847 ft 499 kts 24°
2026-05-09 19:52 33.21154 70.80094 36850 ft 498 kts 24°
2026-05-09 19:52 33.27038 70.84477 36875 ft 499 kts 24°
2026-05-09 19:53 33.32928 70.88872 36877 ft 499 kts 24°
2026-05-09 19:53 33.38776 70.93242 36885 ft 499 kts 24°
2026-05-09 19:54 33.44609 70.97745 36893 ft 504 kts 32°
2026-05-09 19:54 33.46977 71.00763 36918 ft 521 kts 50°
2026-05-09 19:54 33.48678 71.04645 36899 ft 535 kts 66°
2026-05-09 19:55 33.49457 71.09032 36898 ft 543 kts 82°
2026-05-09 19:55 33.49634 71.12028 36918 ft 545 kts 84°
2026-05-09 19:56 33.50284 71.27139 36891 ft 547 kts 83°
2026-05-09 19:56 33.50846 71.36231 36852 ft 547 kts 82°
2026-05-09 19:57 33.51423 71.45293 36776 ft 540 kts 82°
2026-05-09 19:57 33.51603 71.48250 36568 ft 534 kts 82°
2026-05-09 19:57 33.51957 71.54169 35708 ft 533 kts 82°
2026-05-09 19:57 33.52218 71.58556 34918 ft 536 kts 82°
2026-05-09 19:58 33.52484 71.63019 34146 ft 537 kts 82°
2026-05-09 19:58 33.52748 71.67489 33350 ft 537 kts 82°
2026-05-09 19:58 33.53009 71.71948 32571 ft 535 kts 82°
2026-05-09 19:58 33.53267 71.76382 31830 ft 532 kts 83°
2026-05-09 19:59 33.53524 71.80798 31086 ft 529 kts 83°
2026-05-09 19:59 33.53777 71.85184 30338 ft 526 kts 83°
2026-05-09 19:59 33.54026 71.89478 29651 ft 521 kts 83°
2026-05-09 19:59 33.54280 71.93771 29059 ft 512 kts 84°
2026-05-09 20:00 33.54529 71.97985 28521 ft 502 kts 84°
2026-05-09 20:00 33.54765 72.02017 27904 ft 496 kts 84°
2026-05-09 20:00 33.54913 72.06129 27234 ft 492 kts 87°
2026-05-09 20:00 33.54919 72.10221 26566 ft 489 kts 89°
2026-05-09 20:01 33.54869 72.14271 25946 ft 484 kts 89°
2026-05-09 20:01 33.54815 72.18283 25362 ft 479 kts 89°
2026-05-09 20:01 33.54779 72.22248 24859 ft 472 kts 89°
2026-05-09 20:01 33.54761 72.26108 24797 ft 455 kts 89°
2026-05-09 20:02 33.54751 72.29785 24709 ft 440 kts 89°
2026-05-09 20:02 33.54745 72.33394 24626 ft 426 kts 89°
2026-05-09 20:02 33.54737 72.36884 24544 ft 412 kts 89°
2026-05-09 20:03 33.54591 72.43525 24375 ft 386 kts 101°
2026-05-09 20:03 33.53693 72.46487 24305 ft 374 kts 121°
2026-05-09 20:03 33.52706 72.48143 24250 ft 365 kts 133°
2026-05-09 20:03 33.50808 72.50054 24151 ft 348 kts 150°
2026-05-09 20:04 33.48658 72.51181 23717 ft 331 kts 168°
2026-05-09 20:04 33.45680 72.51463 22685 ft 323 kts 190°
2026-05-09 20:04 33.43518 72.50821 21828 ft 318 kts 205°
2026-05-09 20:04 33.41608 72.49548 21057 ft 312 kts 220°
2026-05-09 20:05 33.40075 72.47766 20319 ft 305 kts 235°
2026-05-09 20:05 33.38945 72.45659 19652 ft 298 kts 245°
2026-05-09 20:05 33.38151 72.43431 19142 ft 285 kts 257°
2026-05-09 20:05 33.37932 72.41193 18936 ft 256 kts 272°
2026-05-09 20:06 33.37946 72.39163 18714 ft 235 kts 272°
2026-05-09 20:06 33.37958 72.37878 18343 ft 232 kts 272°
2026-05-09 20:06 33.37973 72.35940 17627 ft 234 kts 272°
2026-05-09 20:06 33.37980 72.33370 16717 ft 232 kts 272°
2026-05-09 20:07 33.37981 72.32095 16299 ft 231 kts 272°
2026-05-09 20:07 33.37980 72.30190 15685 ft 228 kts 272°
2026-05-09 20:07 33.37992 72.28303 15064 ft 225 kts 277°
2026-05-09 20:07 33.38406 72.26525 14427 ft 221 kts 296°
2026-05-09 20:08 33.38929 72.24806 13829 ft 220 kts 281°
2026-05-09 20:08 33.39065 72.20612 12449 ft 215 kts 273°
2026-05-09 20:08 33.39084 72.18830 11858 ft 213 kts 272°
2026-05-09 20:09 33.39104 72.17064 11286 ft 211 kts 272°
2026-05-09 20:09 33.39119 72.15906 10913 ft 210 kts 272°
2026-05-09 20:09 33.39358 72.14217 10313 ft 206 kts 298°
2026-05-09 20:09 33.40330 72.13010 9679 ft 205 kts 333°
2026-05-09 20:10 33.41721 72.12686 9006 ft 207 kts 356°
2026-05-09 20:10 33.43159 72.12594 8401 ft 206 kts 354°
2026-05-09 20:10 33.44934 72.12447 8381 ft 194 kts 354°
2026-05-09 20:10 33.45876 72.12366 8414 ft 207 kts 354°
2026-05-09 20:11 33.47317 72.12521 8384 ft 214 kts 24°
2026-05-09 20:11 33.48330 72.13753 8384 ft 217 kts 68°
2026-05-09 20:11 33.48708 72.15493 8422 ft 217 kts 76°
2026-05-09 20:11 33.49067 72.17277 8461 ft 222 kts 75°
2026-05-09 20:12 33.49447 72.19078 8478 ft 223 kts 74°
2026-05-09 20:12 33.49835 72.20854 8470 ft 218 kts 74°
2026-05-09 20:12 33.50225 72.22599 8461 ft 217 kts 73°
2026-05-09 20:12 33.50624 72.24346 8460 ft 218 kts 73°
2026-05-09 20:13 33.51027 72.26091 8464 ft 218 kts 73°
2026-05-09 20:13 33.51430 72.27817 8463 ft 218 kts 73°
2026-05-09 20:13 33.51843 72.29577 8476 ft 224 kts 73°
2026-05-09 20:13 33.52273 72.31402 8503 ft 230 kts 73°
2026-05-09 20:14 33.52711 72.33255 8363 ft 234 kts 73°
2026-05-09 20:14 33.53154 72.35125 8148 ft 233 kts 73°
2026-05-09 20:14 33.53598 72.36997 7935 ft 233 kts 73°
2026-05-09 20:14 33.54039 72.38860 7597 ft 230 kts 73°
2026-05-09 20:15 33.54470 72.40677 7328 ft 223 kts 73°
2026-05-09 20:15 33.54852 72.42472 7077 ft 223 kts 79°
2026-05-09 20:15 33.55085 72.44287 6848 ft 224 kts 82°
2026-05-09 20:15 33.55292 72.46149 6605 ft 226 kts 82°
2026-05-09 20:16 33.55501 72.48019 6354 ft 226 kts 82°
2026-05-09 20:16 33.55712 72.49884 6064 ft 224 kts 82°
2026-05-09 20:16 33.55922 72.51709 5799 ft 219 kts 82°
2026-05-09 20:16 33.56131 72.53504 5588 ft 216 kts 82°
2026-05-09 20:17 33.56339 72.55283 5490 ft 215 kts 82°
2026-05-09 20:17 33.56549 72.57057 5383 ft 215 kts 82°
2026-05-09 20:17 33.56755 72.58809 5258 ft 217 kts 82°
2026-05-09 20:17 33.56970 72.60628 5024 ft 223 kts 82°
2026-05-09 20:18 33.57185 72.62451 4749 ft 219 kts 82°
2026-05-09 20:18 33.57392 72.64240 4488 ft 214 kts 85°
2026-05-09 20:18 33.57344 72.66015 4212 ft 213 kts 96°
2026-05-09 20:18 33.57124 72.67760 3932 ft 210 kts 102°
2026-05-09 20:19 33.56852 72.69461 3744 ft 207 kts 102°
2026-05-09 20:19 33.56582 72.71179 3398 ft 208 kts 102°
2026-05-09 20:19 33.56327 72.72823 3101 ft 194 kts 102°
2026-05-09 20:19 33.56092 72.74335 2855 ft 179 kts 103°
2026-05-09 20:20 33.55876 72.75716 2596 ft 159 kts 102°
2026-05-09 20:20 33.55683 72.76950 2379 ft 143 kts 102°
2026-05-09 20:20 33.55510 72.78134 2173 ft 146 kts 101°
2026-05-09 20:20 33.55324 72.79316 2001 ft 145 kts 101°
2026-05-09 20:21 33.55128 72.80506 1831 ft 148 kts 100°
2026-05-09 20:21 33.54945 72.81688 1766 ft 133 kts 101°
2026-05-09 20:21 33.54811 72.82540 1764 ft 77 kts 101°
2026-05-09 20:21 33.54744 72.82978 1768 ft 43 kts 101°
2026-05-09 20:22 33.54691 72.83315 1770 ft 38 kts 101°
2026-05-09 20:22 33.54643 72.83615 1770 ft 30 kts 100°
2026-05-09 20:22 33.54606 72.83861 1768 ft 30 kts 100°
2026-05-09 20:22 33.54566 72.84106 1770 ft 30 kts 101°
2026-05-09 20:23 33.54537 72.84316 1765 ft 12 kts 85°
2026-05-09 20:23 33.54595 72.84378 1767 ft 12 kts 12°
2026-05-09 20:23 33.54678 72.84398 1768 ft 12 kts 11°
2026-05-09 20:23 33.54762 72.84418 1771 ft 12 kts 12°
2026-05-09 20:24 33.54847 72.84439 1775 ft 12 kts 12°
2026-05-09 20:24 33.54914 72.84393 1776 ft 13 kts 291°
2026-05-09 20:24 33.54934 72.84287 1775 ft 13 kts 281°
2026-05-09 20:24 33.54951 72.84177 1776 ft 13 kts 281°
2026-05-09 20:25 33.54968 72.84067 1776 ft 13 kts 280°
2026-05-09 20:25 33.54984 72.83958 1776 ft 13 kts 280°
2026-05-09 20:25 33.55001 72.83848 1774 ft 13 kts 280°
2026-05-09 20:25 33.55017 72.83740 1776 ft 13 kts 280°
2026-05-09 20:26 33.55034 72.83630 1776 ft 13 kts 280°
2026-05-09 20:26 33.55058 72.83523 1777 ft 13 kts 307°
2026-05-09 20:26 33.55146 72.83514 1775 ft 14 kts 10°
2026-05-09 20:26 33.55239 72.83534 1777 ft 14 kts 10°
2026-05-09 20:27 33.55306 72.83530 1777 ft 9 kts 325°
2026-05-09 20:27 33.55362 72.83506 1776 ft 10 kts 11°
2026-05-09 20:27 33.55415 72.83519 1776 ft 3 kts 10°
2026-05-09 20:27 33.55417 72.83519 1776 ft 0 kts 10°